Weather History for Windom, MN

Change the Weather History Date:

Friday, November 22, 2013

  Actual Average Record
Temperature  
Mean Temperature 18 °F -  
Max Temperature 33 °F 39 °F 64 °F (1974)
Min Temperature 3 °F 22 °F -2 °F (1964)
Degree Days  
Heating Degree Days 47    
Moisture  
Dew Point 6 °F    
Average Humidity 63    
Maximum Humidity 85    
Minimum Humidity 28    
Precipitation  
Precipitation 0.00 in - - ()
Sea Level Pressure  
Sea Level Pressure 30.55 in    
Wind  
Wind Speed 14 mph (WNW)    
Max Wind Speed 24 mph    
Max Gust Speed 30 mph    
Visibility 10 miles    
Events      
Averages and records for this station are not official NWS values.
T = Trace of Precipitation, MM = Missing Value Source: NWS Daily Summary

Daily Weather History Graph

Daily Weather History Graph

Search for Another Location

Airport:

Trip Planner

Search our weather history database for the weather conditions in past years. The results will help you decide how hot, cold, wet, or windy it might be!

Date:

Astronomy

Nov. 22, 2013 Rise Set
Actual Time 7:24 AM CST 4:48 PM CST
Civil Twilight 6:52 AM CST 5:20 PM CST
Nautical Twilight 6:17 AM CST 5:55 PM CST
Astronomical Twilight 5:43 AM CST 6:29 PM CST
Moon 9:24 PM CST (11/22) 11:06 AM CST (11/22)
Length of Visible Light 10h 27m
Length of Day
9h 23m
Waning Gibbous, 78% of the Moon is Illuminated
Nov 22
Waning Gibbous
Nov 25
Last Quarter
Dec 2
New
Dec 9
First Quarter
Dec 17
Full

Hourly Weather History & Observations

Time (CST) Temp. Windchill Dew Point Humidity Pressure Visibility Wind Dir Wind Speed Gust Speed Precip Events Conditions
12:13 AM 15.8 °F -1.1 °F 8.6 °F 73% 30.54 in 10.0 mi NNW 19.6 mph - N/A   Overcast
12:32 AM 15.8 °F -0.2 °F 8.6 °F 73% 30.54 in 10.0 mi NNW 17.3 mph 26.5 mph N/A   Overcast
12:52 AM 15.8 °F 0.3 °F 8.6 °F 73% 30.55 in 10.0 mi NW 16.1 mph 20.7 mph N/A   Scattered Clouds
1:13 AM 15.8 °F -0.2 °F 8.6 °F 73% 30.55 in 10.0 mi NW 17.3 mph - N/A   Overcast
1:32 AM 14.0 °F -2.5 °F 8.6 °F 79% 30.54 in 10.0 mi NW 17.3 mph - N/A   Mostly Cloudy
1:52 AM 14.0 °F -3.0 °F 8.6 °F 79% 30.54 in 10.0 mi NW 18.4 mph 21.9 mph N/A   Scattered Clouds
2:13 AM 12.2 °F -4.3 °F 8.6 °F 85% 30.54 in 10.0 mi NW 16.1 mph - N/A   Clear
2:32 AM 12.2 °F -3.1 °F 8.6 °F 85% 30.54 in 10.0 mi NW 13.8 mph - N/A   Clear
2:53 AM 10.4 °F -4.1 °F 6.8 °F 85% 30.55 in 10.0 mi NW 11.5 mph - N/A   Clear
3:13 AM 10.4 °F -5.4 °F 6.8 °F 85% 30.55 in 10.0 mi NW 13.8 mph - N/A   Clear
3:32 AM 10.4 °F -1.5 °F 6.8 °F 85% 30.55 in 10.0 mi WNW 8.1 mph - N/A   Clear
3:53 AM 8.6 °F -3.7 °F 5.0 °F 85% 30.54 in 10.0 mi NW 8.1 mph - N/A   Clear
4:13 AM 8.6 °F -1.3 °F 5.0 °F 85% 30.54 in 10.0 mi WNW 5.8 mph - N/A   Clear
4:32 AM 8.6 °F -1.3 °F 3.2 °F 79% 30.55 in 10.0 mi WNW 5.8 mph - N/A   Clear
4:53 AM 6.8 °F -6.9 °F 3.2 °F 85% 30.54 in 10.0 mi WNW 9.2 mph - N/A   Clear
5:13 AM 6.8 °F -4.8 °F 1.4 °F 79% 30.54 in 10.0 mi WNW 6.9 mph - N/A   Clear
5:32 AM 6.8 °F -4.8 °F 1.4 °F 79% 30.55 in 10.0 mi WNW 6.9 mph - N/A   Clear
5:53 AM 6.8 °F -9.3 °F 1.4 °F 79% 30.56 in 10.0 mi WNW 12.7 mph - N/A   Clear
6:13 AM 6.8 °F -7.8 °F -0.4 °F 72% 30.57 in 10.0 mi WNW 10.4 mph - N/A   Clear
6:32 AM 6.8 °F -5.9 °F -0.4 °F 72% 30.56 in 10.0 mi West 8.1 mph - N/A   Clear
6:52 AM 5.0 °F - -0.4 °F 78% 30.54 in 10.0 mi Calm Calm - N/A   Clear
7:12 AM 3.2 °F -7.8 °F -0.4 °F 85% 30.54 in 10.0 mi West 5.8 mph - N/A   Clear
7:32 AM 3.2 °F -10.3 °F -0.4 °F 85% 30.57 in 10.0 mi West 8.1 mph - N/A   Clear
7:53 AM 6.8 °F -7.8 °F 1.4 °F 79% 30.58 in 10.0 mi West 10.4 mph - N/A   Clear
8:12 AM 8.6 °F -7.0 °F 1.4 °F 73% 30.58 in 10.0 mi WNW 12.7 mph - N/A   Clear
8:32 AM 10.4 °F -4.8 °F 3.2 °F 73% 30.58 in 10.0 mi WNW 12.7 mph - N/A   Clear
8:53 AM 12.2 °F -0.2 °F 3.2 °F 67% 30.58 in 10.0 mi WNW 9.2 mph - N/A   Clear
9:12 AM 14.0 °F 1.2 °F 3.2 °F 62% 30.57 in 10.0 mi WNW 10.4 mph - N/A   Clear
9:32 AM 17.6 °F 6.4 °F 5.0 °F 58% 30.57 in 10.0 mi West 9.2 mph - N/A   Clear
9:53 AM 19.4 °F 9.5 °F 6.8 °F 58% 30.58 in 10.0 mi West 8.1 mph - N/A   Clear
10:12 AM 21.2 °F 13.6 °F 6.8 °F 54% 30.58 in 10.0 mi WSW 5.8 mph - N/A   Clear
10:32 AM 23.0 °F 13.9 °F 6.8 °F 50% 30.58 in 10.0 mi SW 8.1 mph - N/A   Clear
10:53 AM 24.8 °F 15.3 °F 8.6 °F 50% 30.58 in 10.0 mi WSW 9.2 mph - N/A   Clear
11:12 AM 24.8 °F 14.6 °F 8.6 °F 50% 30.57 in 10.0 mi WSW 10.4 mph - N/A   Clear
11:32 AM 26.6 °F 17.5 °F 10.4 °F 51% 30.55 in 10.0 mi WSW 9.2 mph - N/A   Clear
11:53 AM 28.4 °F 17.5 °F 10.4 °F 47% 30.54 in 10.0 mi WSW 13.8 mph - N/A   Clear
12:12 PM 30.2 °F 19.8 °F 8.6 °F 40% 30.53 in 10.0 mi WSW 13.8 mph - N/A   Clear
12:32 PM 32.0 °F 21.2 °F 8.6 °F 38% 30.52 in 10.0 mi WSW 16.1 mph - N/A   Clear
12:53 PM 32.0 °F 21.6 °F 6.8 °F 35% 30.51 in 10.0 mi WSW 15.0 mph 21.9 mph N/A   Clear
1:12 PM 33.8 °F 24.3 °F 8.6 °F 35% 30.50 in 10.0 mi SW 13.8 mph - N/A   Clear
1:32 PM 33.8 °F 23.9 °F 5.0 °F 30% 30.50 in 10.0 mi SW 15.0 mph 20.7 mph N/A   Clear
1:52 PM 33.8 °F 24.3 °F 6.8 °F 32% 30.50 in 10.0 mi SW 13.8 mph 20.7 mph N/A   Clear
2:12 PM 33.8 °F 22.8 °F 6.8 °F 32% 30.49 in 10.0 mi WSW 18.4 mph 23.0 mph N/A   Clear
2:33 PM 33.8 °F 23.9 °F 6.8 °F 32% 30.48 in 10.0 mi SW 15.0 mph 26.5 mph N/A   Clear
2:52 PM 33.8 °F 22.2 °F 6.8 °F 32% 30.48 in 10.0 mi WSW 20.7 mph - N/A   Clear
3:12 PM 33.8 °F 23.2 °F 3.2 °F 28% 30.48 in 10.0 mi WSW 17.3 mph - N/A   Clear
3:33 PM 32.0 °F 20.5 °F 3.2 °F 30% 30.48 in 10.0 mi WSW 18.4 mph - N/A   Clear
3:52 PM 30.2 °F 19.3 °F 5.0 °F 34% 30.47 in 10.0 mi WSW 15.0 mph 21.9 mph N/A   Clear
4:12 PM 30.2 °F 18.9 °F 5.0 °F 34% 30.48 in 10.0 mi WSW 16.1 mph - N/A   Clear
4:33 PM 28.4 °F 18.0 °F 6.8 °F 40% 30.49 in 10.0 mi WSW 12.7 mph - N/A   Clear
4:52 PM 26.6 °F 16.8 °F 6.8 °F 43% 30.50 in 10.0 mi WSW 10.4 mph - N/A   Clear
5:12 PM 26.6 °F 16.2 °F 8.6 °F 47% 30.50 in 10.0 mi WSW 11.5 mph - N/A   Clear
5:33 PM 24.8 °F 14.0 °F 8.6 °F 50% 30.50 in 10.0 mi WSW 11.5 mph - N/A   Clear
5:52 PM 24.8 °F 13.4 °F 8.6 °F 50% 30.51 in 10.0 mi West 12.7 mph - N/A   Clear
6:12 PM 24.8 °F 12.9 °F 10.4 °F 54% 30.52 in 10.0 mi WNW 13.8 mph - N/A   Clear
6:33 PM 23.0 °F 12.4 °F 12.2 °F 63% 30.53 in 10.0 mi NW 10.4 mph - N/A   Clear
6:52 PM 21.2 °F 7.3 °F 12.2 °F 68% 30.53 in 10.0 mi NW 16.1 mph 20.7 mph N/A   Clear
7:12 PM 21.2 °F 8.9 °F 12.2 °F 68% 30.54 in 10.0 mi NNW 12.7 mph - N/A   Clear
7:33 PM 19.4 °F 6.6 °F 12.2 °F 74% 30.54 in 10.0 mi NNW 12.7 mph - N/A   Clear
7:52 PM 19.4 °F 9.5 °F 12.2 °F 74% 30.56 in 10.0 mi NNW 8.1 mph - N/A   Clear
8:12 PM 19.4 °F 6.0 °F 12.2 °F 74% 30.56 in 10.0 mi NNW 13.8 mph 17.3 mph N/A   Clear
8:33 PM 21.2 °F 6.8 °F 12.2 °F 68% 30.57 in 10.0 mi NNW 17.3 mph 20.7 mph N/A   Clear
8:52 PM 19.4 °F 3.6 °F 12.2 °F 74% 30.58 in 10.0 mi NNW 19.6 mph 24.2 mph N/A   Clear
9:12 PM 19.4 °F 4.1 °F 12.2 °F 74% 30.58 in 10.0 mi NNW 18.4 mph 24.2 mph N/A   Scattered Clouds
9:33 PM 17.6 °F 0.5 °F 12.2 °F 79% 30.60 in 10.0 mi NNW 21.9 mph 27.6 mph N/A   Mostly Cloudy
9:52 PM 15.8 °F -1.5 °F 8.6 °F 73% 30.61 in 10.0 mi NNW 20.7 mph 26.5 mph N/A   Mostly Cloudy
10:12 PM 14.0 °F -2.5 °F 6.8 °F 73% 30.62 in 10.0 mi NW 17.3 mph - N/A   Scattered Clouds
10:33 PM 12.2 °F -6.3 °F 3.2 °F 67% 30.62 in 10.0 mi NNW 20.7 mph 28.8 mph N/A   Mostly Cloudy
10:52 PM 12.2 °F -7.5 °F 3.2 °F 67% 30.62 in 10.0 mi NNW 24.2 mph 29.9 mph N/A   Overcast
11:12 PM 10.4 °F -9.1 °F 1.4 °F 67% 30.63 in 10.0 mi NNW 21.9 mph 27.6 mph N/A   Scattered Clouds
11:32 PM 10.4 °F -8.2 °F 3.2 °F 73% 30.64 in 10.0 mi NNW 19.6 mph 25.3 mph N/A   Scattered Clouds
11:53 PM 8.6 °F -11.0 °F 1.4 °F 73% 30.65 in 10.0 mi NNW 20.7 mph 25.3 mph N/A   Clear